Regional Weather Roundup
Issued by NWS

Home | Current Version | Previous Version | Text Only | Print | Product List | Glossary On
Versions: 1 2 3 4 5 6 7 8 9 10 11 12 13 14 15 16 17 18 19 20 21 22 23 24 25 26 27 28 29 30 31 32 33 34 35 36 37 38 39 40 41 42 43 44 45 46 47 48 49 50
000
ASUS43 KBIS 242020
RWRND

NORTH DAKOTA REGIONAL WEATHER ROUNDUP
NATIONAL WEATHER SERVICE BISMARCK ND
300 PM CDT FRI APR 24 2015

NOTE: "FAIR" INDICATES FEW OR NO CLOUDS BELOW 12,000 FEET WITH NO
SIGNIFICANT WEATHER AND/OR OBSTRUCTIONS TO VISIBILITY.


NDZ001>003-009>011-017-242100-
NORTHWEST NORTH DAKOTA

CITY           SKY/WX    TMP DP  RH WIND       PRES   REMARKS
WILLISTON      PTSUNNY   66  32  28 E8G17     29.62F
MINOT          SUNNY     60  32  34 E10G23    29.65F
MINOT AFB      SUNNY     60  34  38 E12G21    29.64F
$$

NDZ018>021-031>035-040>046-242100-
SOUTHWEST NORTH DAKOTA

CITY           SKY/WX    TMP DP  RH WIND       PRES   REMARKS
BISMARCK       SUNNY     66  38  35 E15       29.61F
DICKINSON      SUNNY     65  33  30 E7        29.60F
GARRISON         N/A     63  38  39 E10       29.63S
HETTINGER ARPT SUNNY     67  33  28 NE8G18    29.60F
$$

NDZ004>008-012>016-024-026-027-054-242100-
NORTHEAST NORTH DAKOTA

CITY           SKY/WX    TMP DP  RH WIND       PRES   REMARKS
GRAND FORKS    CLOUDY    50  37  61 SE14      29.75S
GRND FRKS AFB  CLOUDY    53  37  56 SE14      29.74S
DEVILS LAKE    SUNNY     55  39  54 SE14      29.68S
$$

NDZ022-023-025-028>030-036>039-047>053-242100-
SOUTHEAST NORTH DAKOTA

CITY           SKY/WX    TMP DP  RH WIND       PRES   REMARKS
FARGO          CLOUDY    54  42  64 SE18      29.70F
JAMESTOWN      SUNNY     61  40  45 E9G21     29.64S
$$




USA.gov is the U.S. government's official web portal to all federal, state and local government web resources and services.